EW3448 Victoria MT current weather conditions

sailwx.info

Wind from 308 at 0 knots gusting 3

Air temperature 20.0° C
Dewpoint 17.4° C

Last reported at 2020-Jun-06 22:00 UTC.
Time now 2020-Jun-06 22:53 UTC

Location: N 36°03' E 014°15'.
View on Google Maps.

See reports from other nearby stations

  
Tides and Currents Weather Stations Pressure Air Temp Water Temp Dewpoint Dewpoint Depression Visibility Wind Speed Wind Dir Waves Ship Positions
date/time (UTC)wind fromknots sea level pressurealtimeterstation pressurevisibilityair tempwater tempwave heightnotes
2020-Jun-06 22:00 308 0 gusting 3 20.0
2020-Jun-06 21:55 308 1 gusting 5 20.0
2020-Jun-06 21:50 307 1 gusting 5 20.0
2020-Jun-06 21:45 307 1 gusting 5 20.0
2020-Jun-06 21:39 307 2 gusting 7 20.6
2020-Jun-06 21:34 306 2 gusting 7 20.6
2020-Jun-06 21:29 301 3 gusting 9 20.6
2020-Jun-06 21:24 301 2 gusting 9 20.6
2020-Jun-06 21:18 330 2 gusting 7 20.6
2020-Jun-06 21:13 331 2 gusting 7 20.6
2020-Jun-06 21:08 317 2 gusting 6 20.6
2020-Jun-06 21:03 316 2 gusting 9 20.6
2020-Jun-06 20:58 319 2 gusting 9 20.6
2020-Jun-06 20:53 319 3 gusting 7 20.6
2020-Jun-06 20:48 321 2 gusting 6 20.6
2020-Jun-06 20:43 333 3 gusting 6 20.6
2020-Jun-06 20:37 335 3 gusting 9 20.6
2020-Jun-06 20:32 328 3 gusting 9 20.6
2020-Jun-06 20:27 309 3 gusting 10 20.6
2020-Jun-06 20:22 295 3 gusting 10 20.6
2020-Jun-06 20:17 307 3 gusting 10 20.6
2020-Jun-06 20:12 300 4 gusting 13 20.6
2020-Jun-06 20:07 298 5 gusting 13 20.6
2020-Jun-06 20:02 292 5 gusting 12 20.6
2020-Jun-06 19:57 298 5 gusting 12 20.6
2020-Jun-06 19:52 297 5 gusting 14 20.6
2020-Jun-06 19:46 297 5 gusting 14 20.6
2020-Jun-06 19:41 290 4 gusting 11 20.6
2020-Jun-06 19:36 302 4 gusting 11 20.6
2020-Jun-06 19:31 296 4 gusting 13 20.6
2020-Jun-06 19:25 299 4 gusting 13 20.6
2020-Jun-06 19:20 301 6 gusting 11 20.6
2020-Jun-06 19:15 297 6 gusting 11 20.6
2020-Jun-06 19:09 293 6 gusting 11 20.6
2020-Jun-06 19:04 289 5 gusting 11 20.6
2020-Jun-06 18:59 302 5 gusting 12 20.6
2020-Jun-06 18:54 304 4 gusting 13 20.6
2020-Jun-06 18:48 307 5 gusting 15 20.6
2020-Jun-06 18:43 281 6 gusting 15 20.6
2020-Jun-06 18:38 300 5 gusting 13 20.6
2020-Jun-06 18:33 294 5 gusting 13 20.6
2020-Jun-06 18:27 307 4 gusting 11 20.6
2020-Jun-06 18:23 309 3 gusting 11 20.6
2020-Jun-06 18:17 309 3 gusting 11 20.6
2020-Jun-06 18:12 287 4 gusting 11 20.6
2020-Jun-06 18:07 292 6 gusting 12 21.1
2020-Jun-06 18:02 290 6 gusting 13 21.1
2020-Jun-06 17:57 281 5 gusting 13 21.1
2020-Jun-06 17:52 295 5 gusting 11 21.1
2020-Jun-06 17:46 291 5 gusting 12 21.1
2020-Jun-06 17:41 290 5 gusting 18 21.7
2020-Jun-06 17:36 288 6 gusting 18 21.7
2020-Jun-06 17:31 297 6 gusting 16 21.1
2020-Jun-06 17:26 271 4 gusting 13 21.7
2020-Jun-06 17:20 290 5 gusting 13 21.7
2020-Jun-06 17:16 276 5 gusting 13 21.7
2020-Jun-06 17:10 285 6 gusting 15 21.7
2020-Jun-06 17:05 279 6 gusting 15 21.7
2020-Jun-06 17:00 297 6 gusting 14 21.7
2020-Jun-06 16:55 297 6 gusting 16 21.7
2020-Jun-06 16:49 278 6 gusting 16 22.2
2020-Jun-06 16:44 290 6 gusting 15 22.2
2020-Jun-06 16:39 333 5 gusting 15 22.2
2020-Jun-06 16:34 300 4 gusting 15 22.2
2020-Jun-06 16:29 290 6 gusting 18 21.7
2020-Jun-06 16:23 260 7 gusting 18 22.2
2020-Jun-06 16:18 255 6 gusting 14 22.2
2020-Jun-06 16:13 288 7 gusting 16 22.2
2020-Jun-06 16:08 300 7 gusting 18 22.2
2020-Jun-06 16:03 289 6 gusting 16 22.2
2020-Jun-06 15:57 280 8 gusting 18 22.2
2020-Jun-06 15:52 289 6 gusting 19 22.2
2020-Jun-06 15:47 328 6 gusting 19 22.2
2020-Jun-06 15:42 290 6 gusting 13 22.2
2020-Jun-06 15:37 290 5 gusting 13 22.2
2020-Jun-06 15:31 261 6 gusting 13 22.2
2020-Jun-06 15:26 298 6 gusting 13 22.2
2020-Jun-06 15:21 288 6 gusting 19 22.8
2020-Jun-06 15:17 283 5 gusting 19 22.2
2020-Jun-06 15:10 275 7 gusting 19 22.8
2020-Jun-06 15:05 311 8 gusting 19 22.8
2020-Jun-06 15:00 296 7 gusting 21 22.8
2020-Jun-06 14:55 255 7 gusting 21 22.8
2020-Jun-06 14:49 328 6 gusting 19 22.8
2020-Jun-06 14:44 300 6 gusting 18 22.8
2020-Jun-06 14:39 316 6 gusting 16 22.8
2020-Jun-06 14:34 287 6 gusting 15 22.8
2020-Jun-06 14:28 299 7 gusting 21 22.8
2020-Jun-06 14:23 276 7 gusting 21 22.8
2020-Jun-06 14:18 288 7 gusting 22 22.8
2020-Jun-06 14:13 342 6 gusting 22 23.3
2020-Jun-06 14:08 307 5 gusting 15 23.3
2020-Jun-06 14:02 281 5 gusting 14 23.3
2020-Jun-06 13:57 347 6 gusting 18 23.3
2020-Jun-06 13:52 309 6 gusting 18 22.8
2020-Jun-06 13:47 290 7 gusting 20 22.8
2020-Jun-06 13:42 293 7 gusting 20 22.8
2020-Jun-06 13:37 289 6 gusting 19 23.3
2020-Jun-06 13:32 293 6 gusting 16 22.8
2020-Jun-06 13:26 297 6 gusting 16 22.8
2020-Jun-06 13:21 278 7 gusting 19 22.8
2020-Jun-06 13:16 323 7 gusting 19 22.8
2020-Jun-06 13:11 315 6 gusting 16 23.3
2020-Jun-06 13:06 312 6 gusting 15 23.3
2020-Jun-06 13:01 301 6 gusting 18 22.8
2020-Jun-06 12:55 296 7 gusting 18 23.3
2020-Jun-06 12:50 309 6 gusting 17 23.3
2020-Jun-06 12:44 330 6 gusting 19 23.3
2020-Jun-06 12:39 309 7 gusting 19 23.3
2020-Jun-06 12:33 342 7 gusting 19 23.3
2020-Jun-06 12:28 298 7 gusting 19 23.3
2020-Jun-06 12:23 278 7 gusting 19 23.3
2020-Jun-06 12:18 297 7 gusting 19 23.3
2020-Jun-06 12:13 328 6 gusting 17 23.3
2020-Jun-06 12:08 322 6 gusting 17 23.3
2020-Jun-06 12:02 318 6 gusting 15 23.3
2020-Jun-06 11:57 287 6 gusting 17 23.3
2020-Jun-06 11:52 314 7 gusting 17 22.8
2020-Jun-06 11:47 285 6 gusting 18 22.8
2020-Jun-06 11:42 297 5 gusting 16 22.8
2020-Jun-06 11:37 286 7 gusting 14 22.8
2020-Jun-06 11:32 297 8 gusting 18 23.3
2020-Jun-06 11:26 288 8 gusting 22 23.3
2020-Jun-06 11:21 316 8 gusting 22 23.3
2020-Jun-06 11:16 314 9 gusting 17 22.8
2020-Jun-06 11:10 303 5 gusting 16 23.3
2020-Jun-06 11:05 328 6 gusting 16 23.3
2020-Jun-06 11:02 351 3 gusting 16 23.3
2020-Jun-06 11:00 306 6 gusting 16 23.3
2020-Jun-06 10:54 291 6 gusting 17 23.3
2020-Jun-06 10:49 328 6 gusting 17 23.3
2020-Jun-06 10:45 269 6 gusting 17 22.8
2020-Jun-06 10:39 288 7 gusting 22 23.3
2020-Jun-06 10:34 275 8 gusting 22 23.3
2020-Jun-06 10:29 297 8 gusting 20 22.8
2020-Jun-06 10:23 277 6 gusting 16 23.3
2020-Jun-06 10:18 323 7 gusting 17 22.8
2020-Jun-06 10:13 277 7 gusting 17 22.8
2020-Jun-06 10:08 285 7 gusting 17 22.8
2020-Jun-06 10:02 337 7 gusting 16 22.8
2020-Jun-06 09:57 291 6 gusting 18 22.8
2020-Jun-06 09:52 292 7 gusting 19 22.8
2020-Jun-06 09:47 291 6 gusting 19 22.8
2020-Jun-06 09:42 311 6 gusting 18 22.8
2020-Jun-06 09:37 335 7 gusting 19 22.8
2020-Jun-06 09:32 310 6 gusting 19 22.8
2020-Jun-06 09:26 286 6 gusting 14 22.8
2020-Jun-06 09:21 288 6 gusting 19 22.8
2020-Jun-06 09:16 309 6 gusting 19 22.8
2020-Jun-06 09:10 302 7 gusting 19 22.8
2020-Jun-06 09:05 325 9 gusting 19 22.2
2020-Jun-06 09:00 319 7 gusting 18 22.2
2020-Jun-06 08:59 313 8 gusting 18 22.2
2020-Jun-06 08:54 326 7 gusting 16 22.2
2020-Jun-06 08:49 315 8 gusting 19 22.2
2020-Jun-06 08:44 288 8 gusting 19 22.2
2020-Jun-06 08:39 306 6 gusting 17 22.2
2020-Jun-06 08:33 300 5 gusting 17 22.2
2020-Jun-06 08:28 295 6 gusting 15 22.2
2020-Jun-06 08:22 300 6 gusting 14 21.7
2020-Jun-06 08:17 279 7 gusting 18 21.7
2020-Jun-06 08:12 304 8 gusting 18 21.7
2020-Jun-06 08:07 272 6 gusting 16 22.2
2020-Jun-06 08:02 341 8 gusting 19 21.7
2020-Jun-06 07:56 295 8 gusting 19 21.7
2020-Jun-06 07:51 276 7 gusting 18 22.2
2020-Jun-06 07:46 303 7 gusting 16 21.7
2020-Jun-06 07:41 274 6 gusting 15 22.2
2020-Jun-06 07:35 302 6 gusting 15 21.7
2020-Jun-06 07:30 300 7 gusting 19 21.7
2020-Jun-06 07:25 267 6 gusting 15 21.7
2020-Jun-06 07:20 340 6 gusting 15 21.7
2020-Jun-06 07:15 341 6 gusting 13 21.7
2020-Jun-06 07:09 319 6 gusting 14 21.7
2020-Jun-06 07:04 320 6 gusting 14 21.7
2020-Jun-06 07:00 313 6 gusting 14 21.1
2020-Jun-06 06:53 335 6 gusting 16 21.1
2020-Jun-06 06:48 290 6 gusting 16 21.1
2020-Jun-06 06:43 328 5 gusting 16 21.1
2020-Jun-06 06:38 291 6 gusting 16 21.1
2020-Jun-06 06:33 282 6 gusting 13 21.1
2020-Jun-06 06:27 301 6 gusting 13 21.1
2020-Jun-06 06:22 322 5 gusting 13 21.1
2020-Jun-06 06:17 324 5 gusting 13 20.6
2020-Jun-06 06:12 307 5 gusting 13 20.6
2020-Jun-06 06:06 311 6 gusting 14 20.6
2020-Jun-06 06:01 292 6 gusting 17 20.0
2020-Jun-06 06:00 283 6 gusting 17 20.0
2020-Jun-06 05:50 327 5 gusting 16 20.6
2020-Jun-06 05:45 301 5 gusting 11 20.6
2020-Jun-06 05:40 300 5 gusting 11 20.6
2020-Jun-06 05:35 326 5 gusting 13 20.6
2020-Jun-06 05:30 306 5 gusting 13 20.0
2020-Jun-06 05:25 349 6 gusting 13 20.0
2020-Jun-06 05:20 316 6 gusting 13 20.0
2020-Jun-06 05:15 303 6 gusting 13 20.0
2020-Jun-06 05:10 335 5 gusting 15 20.0
2020-Jun-06 05:04 309 4 gusting 15 20.0
2020-Jun-06 04:59 345 6 gusting 15 20.0
2020-Jun-06 04:54 295 6 gusting 15 20.0
2020-Jun-06 04:49 320 5 gusting 13 20.0
2020-Jun-06 04:43 309 5 gusting 13 20.0
2020-Jun-06 04:38 310 6 gusting 15 20.0
2020-Jun-06 04:33 316 5 gusting 15 20.0
2020-Jun-06 04:27 306 5 gusting 13 20.0
2020-Jun-06 04:22 307 6 gusting 17 20.0
2020-Jun-06 04:17 328 6 gusting 17 19.4
2020-Jun-06 04:12 324 5 gusting 14 19.4
2020-Jun-06 04:07 333 5 gusting 13 19.4
2020-Jun-06 04:02 319 5 gusting 13 19.4
2020-Jun-06 04:00 298 6 gusting 13 19.4
2020-Jun-06 03:51 307 5 gusting 11 19.4
2020-Jun-06 03:46 320 5 gusting 11 19.4
2020-Jun-06 03:41 322 6 gusting 15 19.4
2020-Jun-06 03:36 327 6 gusting 18 19.4
2020-Jun-06 03:31 294 6 gusting 18 19.4
2020-Jun-06 03:25 19.4
2020-Jun-06 03:20 352 6 gusting 19 19.4
2020-Jun-06 03:15 303 6 gusting 19 19.4
2020-Jun-06 03:10 320 7 gusting 15 19.4
2020-Jun-06 03:05 342 6 gusting 16 19.4
2020-Jun-06 03:00 330 6 gusting 16 19.4
2020-Jun-06 02:54 331 6 gusting 19 19.4
2020-Jun-06 02:49 305 6 gusting 19 19.4
2020-Jun-06 02:44 001 6 gusting 15 19.4
2020-Jun-06 02:38 285 6 gusting 15 19.4
2020-Jun-06 02:33 297 6 gusting 17 19.4
2020-Jun-06 02:28 328 6 gusting 17 19.4
2020-Jun-06 02:23 324 6 gusting 15 19.4
2020-Jun-06 02:18 333 6 gusting 15 19.4
2020-Jun-06 02:15 314 7 gusting 14 19.4
2020-Jun-06 02:08 323 6 gusting 13 19.4
2020-Jun-06 02:02 19.4
2020-Jun-06 01:57 335 5 gusting 18 19.4
2020-Jun-06 01:52 328 6 gusting 13 19.4
2020-Jun-06 01:47 313 6 gusting 19 19.4
2020-Jun-06 01:41 316 6 gusting 19 19.4
2020-Jun-06 01:36 318 6 gusting 14 19.4
2020-Jun-06 01:31 313 6 gusting 14 19.4
2020-Jun-06 01:26 334 6 gusting 13 19.4
2020-Jun-06 01:21 310 6 gusting 14 19.4
2020-Jun-06 01:16 313 6 gusting 14 19.4
2020-Jun-06 01:11 345 6 gusting 13 19.4
2020-Jun-06 01:06 307 6 gusting 16 19.4
2020-Jun-06 01:02 293 6 gusting 16 19.4
2020-Jun-06 00:55 290 5 gusting 18 19.4
2020-Jun-06 00:50 311 6 gusting 18 19.4
2020-Jun-06 00:45 311 5 gusting 14 20.0
2020-Jun-06 00:40 323 5 gusting 13 20.0
2020-Jun-06 00:35 300 5 gusting 13 20.0
2020-Jun-06 00:30 326 5 gusting 13 20.0
2020-Jun-06 00:24 324 5 gusting 13 20.0
2020-Jun-06 00:19 298 5 gusting 13 20.0
2020-Jun-06 00:14 318 5 gusting 13 20.0
2020-Jun-06 00:09 255 6 gusting 13 20.0
2020-Jun-06 00:03 321 6 gusting 14 20.0
2020-Jun-05 23:58 312 6 gusting 15 20.0
2020-Jun-05 23:54 314 6 gusting 15 20.0
2020-Jun-05 23:48 349 6 gusting 13 20.0
2020-Jun-05 23:43 346 6 gusting 13 20.0
2020-Jun-05 23:38 293 6 gusting 15 20.0
2020-Jun-05 23:33 313 6 gusting 15 20.0
2020-Jun-05 23:27 335 6 gusting 18 20.0
2020-Jun-05 23:16 322 5 gusting 15 20.0
2020-Jun-05 23:11 332 6 gusting 15 20.0
2020-Jun-05 23:06 359 5 gusting 15 20.0
2020-Jun-05 23:01 323 6 gusting 15 20.0
2020-Jun-05 23:00 333 4 gusting 15 20.0
2020-Jun-05 22:50 265 6 gusting 13 20.0
2020-Jun-05 22:45 314 6 gusting 15 20.0
2020-Jun-05 22:40 290 6 gusting 13 20.0
2020-Jun-05 22:34 318 6 gusting 17 20.0
2020-Jun-05 22:30 297 7 gusting 17 20.0
2020-Jun-05 22:24 330 6 gusting 16 20.0
2020-Jun-05 22:19 319 6 gusting 14 20.0
2020-Jun-05 22:14 299 5 gusting 16 20.0
2020-Jun-05 22:09 316 6 gusting 16 20.0
2020-Jun-05 22:03 316 6 gusting 17 20.0
2020-Jun-05 22:00 304 6 gusting 17 20.0
2020-Jun-05 21:53 322 6 gusting 13 20.0
2020-Jun-05 21:48 313 6 gusting 13 20.6
2020-Jun-05 21:42 314 5 gusting 13 20.6
2020-Jun-05 21:37 324 5 gusting 13 20.6
2020-Jun-05 21:32 333 6 gusting 12 20.0
2020-Jun-05 21:26 301 6 gusting 19 20.6
2020-Jun-05 21:21 333 6 gusting 19 20.6
2020-Jun-05 21:16 304 6 gusting 15 20.6
2020-Jun-05 21:11 313 5 gusting 14 20.6
2020-Jun-05 21:05 309 5 gusting 19 20.6
2020-Jun-05 21:00 331 6 gusting 19 20.6
2020-Jun-05 20:55 319 6 gusting 17 20.6
2020-Jun-05 20:49 303 6 gusting 16 20.6
2020-Jun-05 20:45 335 5 gusting 16 20.0
2020-Jun-05 20:38 326 6 gusting 15 20.6
2020-Jun-05 20:33 305 6 gusting 17 20.6
2020-Jun-05 20:28 353 6 gusting 17 20.6
2020-Jun-05 20:23 296 6 gusting 14 20.6
2020-Jun-05 20:18 322 6 gusting 18 20.6
2020-Jun-05 20:12 314 6 gusting 18 20.6
2020-Jun-05 20:07 310 6 gusting 19 20.6
2020-Jun-05 20:02 328 7 gusting 19 20.6
2020-Jun-05 19:56 312 6 gusting 16 20.6
2020-Jun-05 19:51 323 7 gusting 16 20.6
2020-Jun-05 19:46 320 7 gusting 17 20.0
2020-Jun-05 19:41 333 7 gusting 17 20.6
2020-Jun-05 19:36 329 6 gusting 15 20.6
2020-Jun-05 19:30 320 6 gusting 17 20.6
2020-Jun-05 19:25 342 7 gusting 17 20.6
2020-Jun-05 19:20 278 6 gusting 17 20.6
2020-Jun-05 19:15 336 5 gusting 13 20.0
2020-Jun-05 19:10 308 5 gusting 14 20.6
2020-Jun-05 19:04 313 6 gusting 14 20.6
2020-Jun-05 18:59 315 6 gusting 15 20.6
2020-Jun-05 18:54 340 6 gusting 16 20.6
2020-Jun-05 18:48 321 6 gusting 16 20.6
2020-Jun-05 18:43 303 6 gusting 19 20.6
2020-Jun-05 18:38 310 6 gusting 19 20.6
2020-Jun-05 18:33 299 6 gusting 16 20.6
2020-Jun-05 18:28 301 6 gusting 16 20.6
2020-Jun-05 18:23 300 6 gusting 17 20.6
2020-Jun-05 18:17 317 6 gusting 17 20.6
2020-Jun-05 18:12 333 6 gusting 13 20.6
2020-Jun-05 18:07 310 7 gusting 18 20.6
2020-Jun-05 18:02 320 8 gusting 17 20.6
2020-Jun-05 17:56 313 7 gusting 16 20.6
2020-Jun-05 17:51 291 7 gusting 19 21.1
2020-Jun-05 17:46 335 8 gusting 19 21.1
2020-Jun-05 17:40 329 7 gusting 19 21.1
2020-Jun-05 17:35 330 7 gusting 19 21.1
2020-Jun-05 17:30 316 8 gusting 18 21.1
2020-Jun-05 17:25 315 8 gusting 16 21.1
2020-Jun-05 17:20 336 6 gusting 17 21.1
2020-Jun-05 17:15 316 6 gusting 17 21.1
2020-Jun-05 17:10 297 7 gusting 18 21.1
2020-Jun-05 17:04 293 8 gusting 19 21.1
2020-Jun-05 16:59 301 8 gusting 19 21.1
2020-Jun-05 16:54 326 8 gusting 14 21.1
2020-Jun-05 16:49 323 8 gusting 20 21.1
2020-Jun-05 16:44 342 8 gusting 20 21.1
2020-Jun-05 16:38 333 8 gusting 18 21.7
2020-Jun-05 16:33 333 7 gusting 18 21.7
2020-Jun-05 16:28 319 7 gusting 18 21.7
2020-Jun-05 16:22 347 9 gusting 23 21.7
2020-Jun-05 16:17 309 9 gusting 23 21.7
2020-Jun-05 16:11 322 8 gusting 19 21.7
2020-Jun-05 16:06 299 9 gusting 19 21.7
2020-Jun-05 16:01 309 9 gusting 17 21.7
2020-Jun-05 15:55 330 7 gusting 19 22.2
2020-Jun-05 15:50 329 7 gusting 18 22.2
2020-Jun-05 15:45 326 8 gusting 18 22.2
2020-Jun-05 15:40 304 8 gusting 18 22.2
2020-Jun-05 15:35 355 8 gusting 19 22.2
2020-Jun-05 15:30 300 8 gusting 18 22.2
2020-Jun-05 15:24 311 8 gusting 19 22.2
2020-Jun-05 15:19 326 8 gusting 19 22.2
2020-Jun-05 15:14 345 8 gusting 18 22.2
2020-Jun-05 15:08 347 9 gusting 18 22.2
2020-Jun-05 15:03 344 8 gusting 20 22.2
2020-Jun-05 15:00 355 6 gusting 20 22.2
2020-Jun-05 14:53 359 7 gusting 19 22.2
2020-Jun-05 14:48 351 7 gusting 17 22.2
2020-Jun-05 14:42 340 7 gusting 19 22.2
2020-Jun-05 14:37 308 7 gusting 19 22.2
2020-Jun-05 14:32 345 7 gusting 18 22.2
2020-Jun-05 14:27 309 8 gusting 18 22.2
2020-Jun-05 14:21 001 9 gusting 19 22.2
2020-Jun-05 14:16 326 8 gusting 19 22.2
2020-Jun-05 14:11 359 7 gusting 18 22.2
2020-Jun-05 14:06 326 7 gusting 18 22.2
2020-Jun-05 14:01 350 8 gusting 19 21.7
2020-Jun-05 13:55 350 7 gusting 19 21.7
2020-Jun-05 13:50 356 8 gusting 19 21.7
2020-Jun-05 13:45 009 10 gusting 19 21.7
2020-Jun-05 13:39 008 8 gusting 18 22.2
2020-Jun-05 13:34 359 8 gusting 18 22.2
2020-Jun-05 13:29 357 8 gusting 18 22.2
2020-Jun-05 13:24 351 8 gusting 19 22.2
2020-Jun-05 13:18 344 7 gusting 19 22.2
2020-Jun-05 13:13 299 7 gusting 19 22.2
2020-Jun-05 13:08 335 7 gusting 19 22.2
2020-Jun-05 13:03 345 7 gusting 16 22.2
2020-Jun-05 12:57 309 9 gusting 19 22.2
2020-Jun-05 12:52 359 8 gusting 19 22.8
2020-Jun-05 12:47 293 7 gusting 18 22.8
2020-Jun-05 12:45 313 7 gusting 18 22.8
2020-Jun-05 12:36 300 7 gusting 18 22.8
2020-Jun-05 12:31 22.8
2020-Jun-05 12:26 330 10 gusting 19 22.2
2020-Jun-05 12:21 340 10 gusting 28 22.2
2020-Jun-05 12:16 356 12 gusting 28 22.2
2020-Jun-05 12:10 337 11 gusting 22 22.2
2020-Jun-05 12:05 353 10 gusting 22 22.8
2020-Jun-05 12:00 359 9 gusting 27 22.8
2020-Jun-05 11:55 357 8 gusting 17 22.2
2020-Jun-05 11:50 359 9 gusting 18 22.2
2020-Jun-05 11:47 345 7 gusting 18 21.7
2020-Jun-05 11:45 356 10 gusting 18 21.7
2020-Jun-05 11:39 352 9 gusting 20 21.7
2020-Jun-05 11:34 329 9 gusting 20 21.7
2020-Jun-05 11:28 356 8 gusting 18 22.2
2020-Jun-05 11:23 340 6 gusting 18 23.3
2020-Jun-05 11:18 001 6 gusting 13 23.9
2020-Jun-05 11:13 001 6 gusting 11 23.9
2020-Jun-05 11:08 23.9
2020-Jun-05 11:03 050 4 gusting 12 23.9
2020-Jun-05 10:57 049 6 gusting 15 23.9
2020-Jun-05 10:52 039 6 gusting 15 23.9
2020-Jun-05 10:47 051 7 gusting 18 23.9
2020-Jun-05 10:41 023 7 gusting 18 23.9
2020-Jun-05 10:36 015 6 gusting 14 23.9
2020-Jun-05 10:31 024 6 gusting 14 23.3
2020-Jun-05 10:26 025 6 gusting 13 23.3
2020-Jun-05 10:20 020 6 gusting 12 23.3
2020-Jun-05 10:16 036 6 gusting 12 22.8
2020-Jun-05 10:15 023 6 gusting 15 22.8
2020-Jun-05 10:10 039 6 gusting 15 22.8
2020-Jun-05 10:04 031 6 gusting 13 22.8
2020-Jun-05 09:59 358 6 gusting 15 22.8
2020-Jun-05 09:54 037 6 gusting 15 22.2
2020-Jun-05 09:49 032 6 gusting 15 22.2
2020-Jun-05 09:44 069 6 gusting 16 22.2
2020-Jun-05 09:38 050 7 gusting 17 22.2
2020-Jun-05 09:33 001 7 gusting 17 22.2
2020-Jun-05 09:28 146 6 gusting 16 22.8
2020-Jun-05 09:23 039 7 gusting 15 22.8
2020-Jun-05 09:18 015 9 gusting 19 22.8
2020-Jun-05 09:13 040 8 gusting 19 22.8
2020-Jun-05 09:08 052 7 gusting 14 22.8
2020-Jun-05 09:02 044 7 gusting 17 22.8
2020-Jun-05 08:57 032 7 gusting 17 22.8
2020-Jun-05 08:52 008 6 gusting 15 23.3
2020-Jun-05 08:47 001 7 gusting 13 23.3
2020-Jun-05 08:42 359 6 gusting 13 22.8
2020-Jun-05 08:37 037 6 gusting 13 22.8
2020-Jun-05 08:31 001 6 gusting 12 22.8
2020-Jun-05 08:26 008 6 gusting 13 22.8
2020-Jun-05 08:21 032 6 gusting 13 22.2
2020-Jun-05 08:16 019 6 gusting 11 22.2
2020-Jun-05 08:11 029 5 gusting 13 22.2
2020-Jun-05 08:06 006 6 gusting 13 22.2
2020-Jun-05 08:01 002 5 gusting 12 22.8
2020-Jun-05 07:56 018 4 gusting 9 22.8
2020-Jun-05 07:50 027 4 gusting 9 22.8
2020-Jun-05 07:45 041 2 gusting 8 22.8
2020-Jun-05 07:40 044 2 gusting 9 22.8
2020-Jun-05 07:35 037 2 gusting 9 22.8
2020-Jun-05 07:30 039 1 gusting 9 22.8
2020-Jun-05 07:25 025 1 gusting 6 22.8
2020-Jun-05 07:19 041 2 gusting 7 22.8
2020-Jun-05 07:14 037 3 gusting 13 22.8
2020-Jun-05 07:09 060 2 gusting 13 22.8
2020-Jun-05 07:04 070 4 gusting 13 22.2
2020-Jun-05 06:59 098 6 gusting 13 22.2
2020-Jun-05 06:54 096 6 gusting 11 22.2
2020-Jun-05 06:48 112 6 gusting 13 22.2
2020-Jun-05 06:43 118 6 gusting 13 22.2
2020-Jun-05 06:38 112 6 gusting 14 22.2
2020-Jun-05 06:33 086 6 gusting 14 22.2
2020-Jun-05 06:28 104 6 gusting 14 22.2
2020-Jun-05 06:22 078 6 gusting 14 21.7
2020-Jun-05 06:18 065 6 gusting 13 21.7
2020-Jun-05 06:12 082 6 gusting 13 21.7
2020-Jun-05 06:07 108 6 gusting 13 21.7
2020-Jun-05 06:02 098 6 gusting 13 21.7
2020-Jun-05 05:57 124 6 gusting 13 21.7
2020-Jun-05 05:51 093 6 gusting 14 21.7
2020-Jun-05 05:46 096 6 gusting 14 21.7
2020-Jun-05 05:41 106 6 gusting 12 21.7
2020-Jun-05 05:36 108 6 gusting 13 21.7
2020-Jun-05 05:31 077 5 gusting 13 21.7
2020-Jun-05 05:26 101 5 gusting 12 21.7
2020-Jun-05 05:21 103 5 gusting 11 21.7
2020-Jun-05 05:16 092 5 gusting 11 21.1
2020-Jun-05 05:10 117 5 gusting 13 21.1
2020-Jun-05 05:05 090 6 gusting 14 21.1
2020-Jun-05 05:00 106 6 gusting 14 21.1
2020-Jun-05 04:55 106 7 gusting 13 21.1
2020-Jun-05 04:50 118 7 gusting 17 21.1
2020-Jun-05 04:46 103 6 gusting 17 20.6
2020-Jun-05 04:45 105 7 gusting 13 21.1
2020-Jun-05 04:40 108 6 gusting 14 21.1
2020-Jun-05 04:34 110 6 gusting 14 21.1
2020-Jun-05 04:30 109 7 gusting 14 20.6
2020-Jun-05 04:24 096 6 gusting 15 21.1
2020-Jun-05 04:19 104 6 gusting 15 21.1
2020-Jun-05 04:15 098 6 gusting 13 20.6
2020-Jun-05 04:09 094 6 gusting 13 21.1
2020-Jun-05 04:04 089 6 gusting 13 21.1
2020-Jun-05 03:59 075 5 gusting 13 20.6
2020-Jun-05 03:53 075 5 gusting 13 20.6
2020-Jun-05 03:48 102 5 gusting 13 20.6
2020-Jun-05 03:45 070 5 gusting 13 20.6
2020-Jun-05 03:38 094 5 gusting 13 20.6
2020-Jun-05 03:33 092 6 gusting 13 20.6
2020-Jun-05 03:30 102 5 gusting 10 20.6
2020-Jun-05 03:22 094 5 gusting 9 20.6
2020-Jun-05 03:17 098 5 gusting 11 20.6
2020-Jun-05 03:15 103 5 gusting 11 20.6
2020-Jun-05 03:07 103 4 gusting 11 20.6
2020-Jun-05 03:02 092 3 gusting 9 20.6
2020-Jun-05 03:00 093 3 gusting 9 20.6
2020-Jun-05 02:52 102 4 gusting 11 20.6
2020-Jun-05 02:47 078 5 gusting 11 20.6
2020-Jun-05 02:42 088 5 gusting 9 21.1
2020-Jun-05 02:36 107 4 gusting 9 21.1
2020-Jun-05 02:31 089 4 gusting 9 21.1
2020-Jun-05 02:26 101 4 gusting 8 21.1
2020-Jun-05 02:21 087 4 gusting 8 21.1
2020-Jun-05 02:15 068 3 gusting 8 20.6
2020-Jun-05 02:10 070 2 gusting 8 21.1
2020-Jun-05 02:05 088 1 gusting 8 21.1
2020-Jun-05 01:59 070 1 gusting 4 21.1
2020-Jun-05 01:54 070 0 gusting 4 21.1
2020-Jun-05 01:48 072 21.1
2020-Jun-05 01:43 072 21.1
2020-Jun-05 01:38 072 21.1
2020-Jun-05 01:33 072 21.1
2020-Jun-05 01:30 072 21.1
2020-Jun-05 01:23 072 0 gusting 4 21.1
2020-Jun-05 01:18 072 0 gusting 4 21.1
2020-Jun-05 01:13 071 0 gusting 4 21.1
2020-Jun-05 01:08 072 0 gusting 4 21.1
2020-Jun-05 01:02 072 1 gusting 6 21.1
2020-Jun-05 00:57 072 1 gusting 6 21.1
2020-Jun-05 00:52 078 1 gusting 6 21.1
2020-Jun-05 00:47 103 2 gusting 6 21.1
2020-Jun-05 00:45 105 0 gusting 6 21.1
2020-Jun-05 00:37 120 4 gusting 7 21.7
2020-Jun-05 00:32 115 3 gusting 7 21.7
2020-Jun-05 00:27 124 3 gusting 7 21.7
2020-Jun-05 00:21 108 3 gusting 6 21.7
2020-Jun-05 00:16 108 4 gusting 7 21.7
2020-Jun-05 00:15 108 2 gusting 7 21.7
2020-Jun-05 00:05 128 4 gusting 10 21.7
2020-Jun-05 00:00 119 6 gusting 12 21.7
2020-Jun-04 23:55 120 6 gusting 12 21.7
2020-Jun-04 23:50 140 6 gusting 12 21.7
2020-Jun-04 23:45 127 6 gusting 12 21.7
2020-Jun-04 23:44 123 6 gusting 12 21.7
2020-Jun-04 23:39 127 6 gusting 12 21.7
2020-Jun-04 23:34 113 6 gusting 13 22.2
2020-Jun-04 23:28 126 5 gusting 13 22.2
2020-Jun-04 23:23 136 6 gusting 12 22.2
2020-Jun-04 23:18 134 6 gusting 16 22.2
2020-Jun-04 23:13 148 6 gusting 16 22.2
2020-Jun-04 23:07 147 6 gusting 13 22.2
2020-Jun-04 23:02 140 6 gusting 13 22.2
2020-Jun-04 22:57 134 5 gusting 13 22.2
2020-Jun-04 22:52 139 5 gusting 13 22.2
2020-Jun-04 22:47 131 5 gusting 13 22.2
2020-Jun-04 22:42 174 5 gusting 13 22.2
2020-Jun-04 22:36 139 5 gusting 14 22.2
2020-Jun-04 22:31 158 5 gusting 14 22.2
2020-Jun-04 22:26 128 5 gusting 12 22.2
2020-Jun-04 22:21 146 4 gusting 9 21.7
2020-Jun-04 22:16 143 3 gusting 9 21.7
2020-Jun-04 22:10 141 4 gusting 9 21.7
2020-Jun-04 22:05 156 5 gusting 9 21.7